DW0805 Weather Reports


time (UTC)temp
C
wind
direction
speed
KPH
gust
KPH
rain 1hr
cm
rain 24hr
cm
rain mn
cm
humidity
%
barometer
mb
20260504184513 11 281 3.2 8.0 0.00 0.51 0.13 77 1011.0
20260504182512 12 304 6.4 12.9 0.00 0.51 0.13 73 1010.9
20260504180512 12 0 8.0 16.1 0.00 0.51 0.13 67 1010.7
20260504173512 13 259 12.9 20.9 0.00 0.51 0.13 63 1010.7
20260504172512 14 246 9.7 19.3 0.00 0.51 0.13 63 1010.7
20260504171512 14 267 11.3 25.7 0.00 0.51 0.13 59 1010.7
20260504170512 14 272 12.9 25.7 0.00 0.51 0.13 60 1010.7
20260504100512 13 321 16.1 29.0 0.00 0.51 0.13 73 1009.9
20260504045513 10 311 4.8 9.7 0.00 0.48 0.10 96 1006.1
20260504043513 10 339 4.8 9.7 0.00 0.48 0.10 96 1006.0
20260504040512 11 346 4.8 14.5 0.00 0.48 0.10 96 1005.8
20260504035513 11 346 8.0 16.1 0.00 0.48 0.10 96 1005.8
20260504032512 12 234 14.5 22.5 0.00 0.48 0.10 96 1005.6
20260504025512 12 237 14.5 22.5 0.03 0.48 0.10 96 1005.6
20260504024512 12 229 11.3 24.1 0.03 0.48 0.10 96 1005.6
20260504022512 11 197 4.8 9.7 0.03 0.48 0.10 96 1005.7
20260504021513 11 324 0.0 0.0 0.03 0.48 0.10 96 1005.8
20260504020512 11 318 0.0 0.0 0.00 0.46 0.08 96 1005.7
20260504015512 11 323 0.0 0.0 0.03 0.46 0.08 96 1005.6
20260504014512 11 318 0.0 0.0 0.03 0.46 0.08 96 1005.7
20260504010512 11 318 1.6 4.8 0.03 0.46 0.08 96 1005.9
20260504005512 12 313 0.0 3.2 0.00 0.43 0.05 95 1005.9
20260504004513 12 309 0.0 0.0 0.00 0.43 0.05 96 1005.8
20260504003512 12 341 0.0 0.0 0.03 0.43 0.05 96 1005.9
20260504002512 12 315 0.0 1.6 0.03 0.43 0.05 96 1006.0
20260504001513 12 340 0.0 1.6 0.03 0.43 0.05 96 1005.9
20260504000513 12 313 0.0 0.0 0.03 0.43 0.05 96 1006.0
20260503234512 12 314 0.0 1.6 0.05 0.43 0.05 95 1006.3
20260503233512 12 324 0.0 1.6 0.03 0.43 0.05 95 1006.6
20260503232512 12 334 0.0 3.2 0.05 0.43 0.05 95 1006.7
20260503231513 12 309 0.0 3.2 0.05 0.43 0.05 95 1006.7
20260503230512 12 319 1.6 4.8 0.05 0.43 0.05 95 1007.1
20260503225512 12 304 1.6 12.9 0.03 0.41 0.03 95 1007.2
20260503223512 12 141 6.4 11.3 0.08 0.41 0.03 95 1007.1
20260503221509 11 107 0.0 4.8 0.18 0.38 0.00 95 1007.2
20260503215513 11 90 4.8 8.0 0.20 0.38 0.38 94 1007.4
20260503214513 12 90 3.2 8.0 0.18 0.36 0.36 94 1007.5
20260503213513 11 29 0.0 3.2 0.18 0.33 0.33 94 1007.9
20260503212513 11 24 0.0 0.0 0.13 0.23 0.23 94 1007.5
20260503204513 11 58 4.8 9.7 0.18 0.18 0.18 92 1007.3
20260503203512 12 105 3.2 8.0 0.15 0.15 0.15 92 1007.6
20260503202512 12 101 0.0 3.2 0.13 0.13 0.13 91 1008.1
20260503200512 11 200 0.0 9.7 0.00 0.00 0.00 90 1008.6
20260503193513 12 49 8.0 9.7 0.00 0.00 0.00 89 1008.1
20260503191513 12 31 4.8 9.7 0.00 0.00 0.00 89 1008.1
20260503190512 12 36 4.8 12.9 0.00 0.00 0.00 89 1008.0